sat.trackr.live / text

‹ back to catalog

STARLINK-1361

NORAD 45567 · 2020-025AN

PAYLOAD ACTIVE UNKNOWN

§ Identity

Operator
Country
US
Launch date
2020-04-22
Launch site
AFETR
Launch vehicle
Mass (kg)
RCS (m²)

Purposes: comms

External: N2YO · Heavens-Above · Gunter

§ Orbital elements

Epoch: 2026-09-20T03:21:28.605024Z

Period
91.06 min
Inclination
53.0348°
Eccentricity
0.0005416
Mean motion
15.81439696 rev/d
Perigee alt
322.7 km
Apogee alt
330.0 km
Semi-major
6,704.5 km
B*
4.0935e-4
RAAN
199.3712°
Arg perigee
79.3008°
Mean anomaly
280.8623°
Rev number
35,600

§ Raw data

STARLINK-13611 45567U 20025AN  26263.13991441  .00083111  00000+0  40935-3 0  99942 45567  53.0348 199.3712 0005416  79.3008 280.8623 15.81439696356002

JSON: /api/v1/satellites/45567 · /tle

For live sub-satellite position, see the globe view (requires WebGL).

§ Visibility from observer

Set your observer location to see the next 7 days of passes ≥ 10°. The values pass through the URL so the page stays shareable.

No JS? Fill the form by hand. The geolocation button needs JavaScript.